Home > Weather > Geraldton > Past weeks

Flag for Australia Past Weather in Geraldton, Western Australia, Australia — Yesterday and Last 2 Weeks

Now
59 °F

Cool.


Feels Like: 58 °F
Forecast: 47 / 67 °F
Wind: 10 mph from Southeast

Location: Geraldton Airport

Current Time: Jul 25, 2016 at 6:12:10 PM

Latest Report: Jul 25, 2016 at 5:00 PM


Visibility: N/A

Pressure: 30.25 "Hg

Humidity: 64%

Dew Point: 47 °F

Location of GeraldtonLocation

Past Weather in Geraldton — Graph

°F

Geraldton Temperature Yesterday

Maximum temperature yesterday: 62 °F (at 2:00 PM)
Minimum temperature yesterday: 43 °F (at 2:00 AM)
Average temperature yesterday: 50 °F

High & Low Weather Summary for the Past Weeks

 TemperatureHumidityPressure
High72 °F (Jul 15, 2:00 PM)98% (Jul 19, 3:00 AM)30.38 "Hg (Jul 19, 3:00 AM)
Low37 °F (Jul 13, 6:00 AM)40% (Jul 11, 2:00 PM)29.84 "Hg (Jul 16, 2:00 PM)
Average54 °F77%30.14 "Hg
* Reported Jul 10 5:00 PM — Jul 25 5:00 PM, Geraldton, Weather by CustomWeather, © 2016

Note: Actual official high and low records may vary slightly from our data, if they occured in-between our weather recording intervals... More about our weather records

Advertising

Geraldton Weather History for the Previous 24 Hours

Scroll right to see more
 ConditionsComfort  
Time TempWeatherWind HumidityBarometerVisibility
5:00 PM
Mon, Jul 25
59 °FCool.10 mph64%30.25 "HgN/A
3:00 PM62 °FMild.15 mph52%30.24 "HgN/A
2:00 PM63 °FMild.10 mph52%30.24 "HgN/A
12:00 PM60 °FRefreshingly cool.12 mph58%30.29 "HgN/A
11:00 AM57 °FCool.13 mph64%30.31 "HgN/A
9:00 AM50 °FCool.13 mph74%30.32 "HgN/A
8:00 AM47 °FCool.10 mph80%30.30 "HgN/A
6:00 AM44 °FQuite cool.6 mph84%30.27 "HgN/A
5:00 AM45 °FQuite cool.8 mph82%30.27 "HgN/A
3:00 AM46 °FCool.8 mph82%30.27 "HgN/A
2:00 AM41 °FQuite cool.7 mph89%30.27 "HgN/A
12:00 AM42 °FQuite cool.9 mph91%30.28 "HgN/A
11:00 PM
Sun, Jul 24
43 °FQuite cool.9 mph92%30.29 "HgN/A
9:00 PM45 °FCool.9 mph94%30.29 "HgN/A
8:00 PM46 °FCool.8 mph93%30.28 "HgN/A
6:00 PM52 °FCool.9 mph84%30.25 "HgN/A
Weather by CustomWeather, © 2016

See weather overviewHow to use our weather pages